CZ-2D DEB, 47974

Orbit data source: Space-Track

CZ-2D DEB, 47974 is space debris in SSO originally from a launch on Wed, 25 Sep 2019 UTC launched from the Jiuquan Satellite Launch Center, China (JSC). Debris objects in space refer to the collection of defunct objects orbiting the Earth. Examples of debris include non-operational satellites, rocket bodies, and fragments generated from explosions, collisions, or faulty payload assembly.

Loading next visibility...
Identifier
47974, 2019-063D
Orbit
SSO
Country
Flag of CNCN / PRC
Related business
Manufacturer
Unknown
Mission
Spacecraft
Bus & Motor
Unknown
Mass
Unknown
Launch date (UTC)
2019-09-25 (7 years ago)
Launch vehicle
Unknown
Launch site
Jiuquan Satellite Launch Center, China (JSC)
Object type
Payload
Rocket body
Debris
Shape & HBR
Unknown shape, 0.1 m
Radar Cross Section
Medium (>0.1 m² and <1 m²)

Expand to show TLE details & history
Last TLE update: 2 days ago

TLE from 2 days ago
0 CZ-2D DEB
1 47974U 19063D   26171.15686703  .00000416  00000-0  13573-3 0  9996
2 47974  98.4635 247.9110 0024808 160.0542 200.1623 14.43443483288035
Epoch: 2026-06-20T03:45Z
TLE epoch observation values (Epoch: 2026-06-20T03:45:53.311Z)
Latitude
-0.00007°
Longitude
-76.93665°
Altitude
766.7 km
Speed
7.462 km/s
True Right ascension
16h 31m 38s
True Declination
0° 00' 00"
Sunlit
Object was in full shadow at epoch
Visualization orbit readout
Latitude
Unknown
Longitude
Unknown
Altitude
Unknown
Speed
Unknown
Apparent Right ascension
Unknown
Apparent Declination
Unknown
Sunlit
N/A
Visualization observer readout
Local Sidereal Time
21:30:54
Azimuth
Unknown
Elevation
Unknown
Doppler factor
Unknown
Orbital elements
Apogee altitude
761.929 km
Perigee altitude
726.59 km
Semi-major axis
7,122.396 km
Eccentricity
0.00248
Inclination
98.4635°
RAAN
247.911°
Arg. of periapsis
160.0542°
True anomaly
200.0646°
Mean anomaly
200.1623°
Eccentric anomaly
200.11342°
Mean motion
3.6108 °/min
Orbital period
99.7 mins
BSTAR
0.00013573

Documentation

Showing up to 5 results
|